Location: Waco, TX
(31.5480°N, 97.1670°W)
Time: 00:59:26
(UTC-06:00)

ISS - Pass Details

Date: 25 January 2021
Orbit: 417 x 422 km, 51.6° (Epoch: 09 March)

Event Time Altitude Azimuth Distance (km) Brightness Sun altitude
Rises 15:27:18 0° 215° (SW) 2,348 1.3 25.8°
Reaches altitude 10° 15:29:24 10° 211° (SSW) 1,489 0.7 25.5°
Maximum altitude 15:32:41 55° 133° (SE) 506 -3.0 25.0°
Drops below altitude 10° 15:35:59 10° 54° (NE) 1,500 -1.4 24.5°
Sets 15:38:07 0° 50° (NE) 2,368 -0.5 24.2°
